Flag for Tunisia Weather past 2 weeks in Tunis, Tunisia

Now
77 °F

Clear.


Feels Like: 79 °F
Forecast: 73 / 93 °F
Wind: 9 mph from Northwest

Location: Tunis-Carthage

Current Time: Aug 3, 2015 at 11:20:33 PM

Latest Report: Aug 3, 2015 at 10:30 PM


Visibility: 10 mi

Pressure: 30.01 "Hg

Humidity: 74%

Dew point: 68 °F

Location of TunisLocation

Historic Weather in Tunis — Graph

°F

Tunis temperature yesterday

Maximum temperature yesterday: 102 °F (at 12:30 PM)
Minimum temperature yesterday: 77 °F (at 4:00 AM)
Average temperature yesterday: 89 °F

Past Weeks' High & Low Weather Summary

 TemperatureHumidityPressure
High108 °F (Jul 30, 2:00 PM)94% (Jul 22, 3:30 AM)30.01 "Hg (Jul 22, 3:30 AM)
Low70 °F (Jul 21, 5:30 AM)24% (Aug 1, 12:30 PM)29.71 "Hg (Jul 30, 4:30 PM)
Average86 °F57%29.90 "Hg
* Reported Jul 19 9:00 PM — Aug 3 9:30 PM, Tunis, Weather by CustomWeather, © 2015

Note: Actual official high and low records may vary slightly from our data, if they occured in-between our weather recording intervals... More about our weather records

Advertising

Tunis weather history for previous 24 hours

 ConditionsComfort  
Time TempWeatherWind HumidityBarometerVisibility
9:30 PM
Mon, Aug 3
79 °FPassing clouds.10 mph70%29.98 "HgN/A
9:00 PM79 °FClear.10 mph65%29.98 "Hg10 mi
8:30 PM81 °FClear.21 mph62%29.95 "Hg10 mi
8:00 PM81 °FClear.10 mph62%29.98 "Hg10 mi
7:30 PM82 °FClear.12 mph55%29.98 "Hg10 mi
7:00 PM84 °FPassing clouds.12 mph45%29.98 "HgN/A
6:30 PM86 °FSunny.13 mph49%29.95 "Hg10 mi
6:00 PM88 °FSunny.15 mph49%29.95 "Hg10 mi
5:30 PM88 °FSunny.14 mph46%29.95 "Hg10 mi
5:00 PM88 °FSunny.16 mph55%29.95 "Hg10 mi
4:30 PM90 °FPassing clouds.14 mph52%29.95 "HgN/A
4:00 PM90 °FSunny.15 mph55%29.95 "Hg10 mi
3:30 PM90 °FSunny.18 mph59%29.95 "Hg10 mi
3:00 PM91 °FSunny.18 mph56%29.98 "Hg10 mi
2:30 PM91 °FSunny.17 mph56%29.98 "Hg10 mi
2:00 PM91 °FPassing clouds.18 mph56%29.98 "HgN/A
1:30 PM91 °FPassing clouds.16 mph56%29.98 "HgN/A
1:00 PM93 °FPassing clouds.14 mph47%29.98 "HgN/A
12:30 PM93 °FPassing clouds.13 mph49%29.98 "HgN/A
12:00 PM93 °FPassing clouds.12 mph49%29.98 "HgN/A
11:30 AM93 °FPassing clouds.12 mph44%29.98 "HgN/A
11:00 AM91 °FPassing clouds.12 mph44%30.01 "HgN/A
10:30 AM91 °FPassing clouds.9 mph41%30.01 "HgN/A
10:00 AM90 °FPassing clouds.9 mph41%30.01 "HgN/A
9:30 AM90 °FPassing clouds.9 mph43%30.01 "HgN/A
9:00 AM88 °FPassing clouds.8 mph46%29.98 "HgN/A
8:30 AM86 °FPassing clouds.7 mph49%29.98 "HgN/A
8:00 AM84 °FPassing clouds.3 mph51%29.98 "HgN/A
7:30 AM82 °FPassing clouds.6 mph62%29.98 "HgN/A
7:00 AM81 °FPassing clouds.6 mph70%29.98 "HgN/A
6:30 AM79 °FPassing clouds.7 mph79%29.98 "HgN/A
6:00 AM79 °FPassing clouds.5 mph84%29.98 "HgN/A
5:30 AM79 °FScattered clouds.6 mph84%29.98 "HgN/A
5:00 AM79 °FPassing clouds.5 mph84%29.98 "HgN/A
4:00 AM81 °FPassing clouds.3 mph79%29.98 "HgN/A
3:30 AM79 °FPassing clouds.7 mph89%29.98 "HgN/A
3:00 AM79 °FPassing clouds.6 mph89%29.95 "HgN/A
2:30 AM81 °FPassing clouds.9 mph84%29.95 "HgN/A
2:00 AM81 °FPassing clouds.8 mph84%29.95 "HgN/A
1:30 AM81 °FPassing clouds.9 mph84%29.95 "HgN/A
1:00 AM81 °FPassing clouds.9 mph84%29.98 "HgN/A
12:30 AM82 °FPassing clouds.7 mph79%29.98 "HgN/A
12:00 AM82 °FPassing clouds.8 mph79%29.98 "HgN/A
11:30 PM
Sun, Aug 2
82 °FPassing clouds.6 mph74%29.98 "HgN/A
11:00 PM84 °FPassing clouds.7 mph66%29.98 "HgN/A
Weather by CustomWeather, © 2015

See weather overviewHow to use our weather pages